Погода в Сент-Поле

США     44°56′34″N   93°06′06″W
темп.,
°C
ветер,
м/с
пор.,
м/с
влажн.,
%
обл.,
%
осадки,
мм/ч
давл.,
гПа
погр.,
м
19 апреля, пн
пн1901:00+2ссз61074100 1.3 1014917
04:000сз61072100 0.0 1015852
07:00−1сз597298 0.0 10161062
10:000ссз6961100 0.1 10171472
13:00+3сз6941100 0.3 10172159
16:00+4ссз6839100 0.0 10172081
19:00+4ссз473679 0.0 10181913
22:00+2ссз38365 0.0 1019713
20 апреля, вт
вт2001:000сз384414 0.0 1020409
04:00−1ссз410481 0.0 1020439
07:00−1сз36565 0.0 1021360
10:00+3сз344092 0.0 10221836
13:00+5сз3431100 0.0 10202668
16:00+5ссз452799 0.0 10192430
19:00+5ссз4634100 0.0 10191626
22:00+2ссз364662 0.0 1021570
21 апреля, ср
ср2101:000сз36555 0.0 1021281
04:00−1ссз365814 0.0 1021324
07:00−1сз36615 0.0 1022386
10:00+3сз463896 0.0 10232025
13:00+5сз4630100 0.0 10222697
16:00+5сз463098 0.0 10202253
19:00+5сз353286 0.0 10201488
22:00+2з12395 0.0 102044
22 апреля, чт
чт2201:00+1зсз25471 0.0 1021182
04:000з25500 0.0 1020138
07:00+1зюз27520 0.0 1021226
10:00+7зюз46371 0.0 1020648
13:00+12зюз45325 0.0 10181755
16:00+14зюз46285 0.0 10162107
19:00+13юз36345 0.0 10141380
22:00+9ююз39480 0.0 1015286
23 апреля, пт
пт2301:00+7ююз395245 0.0 1015235
04:00+7ююз31159100 0.0 1014410
07:00+7ююз3980100 0.0 1014694
10:00+7ю3788100 0.1 1013801
13:00+8ююз3677100 0.4 1013935
16:00+9ю3576100 0.3 1011855
19:00+8ю3683100 0.5 1011540
22:00+7ююв2791100 0.1 1012235